Погода в Пскове

Погода в Пскове : погода сейчас, прогноз погоды и архив. Всё, что Вы хотите узнать о погоде в Пскове!

Хотите узнать прогноз погоды в Пскове? Тогда Вам сюда: Погода в Пскове

Поиск расширенной информации на нашем сайте:

Другие новости

Новости СМИ2

Главная страница сайта

Новости сайта

03.07.2017

Напоминаем, что на нашем специализированном сайте Метеоцентр.Азия вы можете получить высокодетализированные автоматические прогнозы погоды по пунктам России, СНГ и мира в авиационном формате (включающие направление и скорость ветра, видимость, явления погоды, количество и форму облачности, нижнюю и верхнюю границу облачности).


Погода в Пскове - сегодня

Время (UTC), дата Ветер
(°,м/с) 
Видим.   Явления Облачность Т
(°С)
Тd
(°С)
f(%) Тe
(°С)
Pmin
(гПа)
dP
(гПа)
Po
(мм)
O2
(г/м3)
Тmin Tmax R s Состояние
почвы
09 19.07.17 260 (З) 20000 м    8/6 1000 м средняя 
[Cu med, cong|Ac trans]
+18.4 +11.1 62 +21  1016.1  0.1  758  284           
12 19.07.17 290 (З) 20000 м    5/4 1000 м средняя 
[Cu med, cong|Ac trans]
+20.3 +8.5 47 +20  1015.3  0.1  758  283           
15 19.07.17 330 (СЗ) 20000 м    8/5 600 м кучево-дожд., средняя, верхняя 
[Cb cap|Ac trans|Ci fib]
+18.9 +9.3 54 +20  1014.7  -0.6  757  284           
18 19.07.17 тихо ()   20000 м    5/4 1000 м средняя 
[Cu Sc|Ac trans]
+16.9 +11 68 +19  1014.8  757  285    +21.6       
21 19.07.17 тихо ()   20000 м    3/1 600 м верхняя 
[Sc|Ci fib]
+10.9 +10 94 +12  1014.8  0.1  757  292           
00 20.07.17 270 (З) 20000 м    ясно 
+9.3 +8 92 +10  1015  0.1  757  294           
03 20.07.17 220 (ЮЗ) 20000 м    3/0 верхняя 
[Ci sp]
+8.4 +7.7 95 +9  1014.9  757  295  +7.3         
06 20.07.17 280 (З) 20000 м    1/1 600 м 
[Sc]
+15.3 +9.9 70 +17  1014.4  -0.4  757  287  +7.3        влажная 
09 20.07.17 300 (СЗ) 20000 м    8/8 600 м кучево-дожд. 
[Cb cap]
+15.9 +9.8 67 +18  1014.4  757  286           
12 20.07.17 280 (З) 20000 м    9/9 600 м кучево-дожд. 
[Cb cap]
+17.6 +9.2 58 +18  1013.4  -0.9  756  285           
15 20.07.17 300 (СЗ) 20000 м    9/9 600 м кучево-дожд. 
[Cb cap]
+17.2 +10 63 +19  1013.3  -0.2  756  285           
18 20.07.17 270 (З) 20000 м    9/8 600 м кучево-дожд., средняя 
[Cb cap|Ac trans]
+13.7 +11 84 +17  1013.4  0.1  756  288    +18.4       
21 20.07.17 240 (ЮЗ) 20000 м    6/0 средняя 
[Ac trans]
+10.1 +9.5 96 +11  1014  0.5  756  292           
00 21.07.17 тихо ()   20000 м    ясно 
+7.9 +7.5 97 +8  1014.4  0.3  757  295           
03 21.07.17 тихо ()   20000 м    ясно 
+7.1 +6.7 97 +7  1015.1  0.3  757  296  +6.5    0.6     
06 21.07.17 330 (СЗ) 20000 м    5/3 600 м средняя 
[Cu hum|Ac trans]
+15.4 +12.2 81 +21  1015.6  0.3  758  287  +6.5    0.1    влажная 
09 21.07.17 280 (З) 20000 м    3/3 1000 м 
[Cu med, cong]
+18.7 +9.2 54 +20  1016.1  0.6  758  284           
12 21.07.17 300 (СЗ) 20000 м    3/3 1000 м 
[Cu med, cong]
+21 +7 40 +21  1015.8  -0.3  758  282           
15 21.07.17 310 (СЗ) 20000 м    3/1 600 м средняя 
[Cu med, cong|Ac trans]
+21.3 +7.1 40 +21  1015.6  0.1  758  282           
18 21.07.17 330 (СЗ) 20000 м    6/3 600 м средняя, верхняя 
[Cu hum|Ac lent|Ci fib]
+16.8 +9.4 62 +18  1016.2  0.5  758  286    +21.5       
21 21.07.17 тихо ()   20000 м    3/0 600 м 
[Sc diur, vesp]
+11.4 +10.4 94 +13  1016.9  0.5  759  292           
00 22.07.17 тихо ()   20000 м    ясно 
+9.2 +8.6 96 +9  1017.3  0.3  759  294           
03 22.07.17 тихо ()   20000 м    ясно 
+8.8 +8.3 97 +9  1017.6  0.3  759  295  +7.6         
06 22.07.17 тихо ()   20000 м    4/3 600 м средняя 
[Cu hum|Ac lent]
+17.8 +10.5 62 +19  1018.1  0.7  760  285  +7.6        влажная 
09 22.07.17 330 (СЗ) 20000 м    5/1 1000 м средняя 
[Cu med, cong|Ac lent]
+20.1 +10.4 54 +22  1018.1  760  283           
Время (UTC), дата Ветер
(°,м/с) 
Видим.   Явления Облачность Т
(°С)
Тd
(°С)
f(%) Тe
(°С)
Pmin
(гПа)
dP
(гПа)
Po
(мм)
O2
(г/м3)
Тmin Tmax R s Состояние
почвы

Для получения пояснительной информации подведите курсор к названию столбца.

ПОГОДА в Пскове - архив

Всё, что Вы хотите узнать о погоде в Пскове - удобно и подробно!

Выберите нужную дату (начиная с 1 января 2015* года) и нажмите кнопку "Найти".
Будут отображены архивные сводки погоды по пункту Псков, начиная с указанной даты.


Отображать данные в формате CSV (для использования в таблицах Excel)


Внимание! Наш архив погоды предназначен исключительно для личного некоммерческого использования в познавательных целях. Если Вам необходимы официальные справки о состоянии погоды (для производственных, юридических, коммерческих и т.п. целей), обращайтесь в органы Росгидромета.

*Примечание: данная дата относится к архиву по метеостанциям СССР (Россия, СНГ, Балтия).
Архив по метеостанциям Зарубежной Европы и Азии (кроме Китая) хранится 10 дней, по другим регионам земного шара (Китай, Африка, Америка, Австралия, Океания) - 1 день.

Псков - район местоположения метеостанции


Название, широта, долгота, высота метеостанции:
Псков (город) 57.8°ш. 28.5°д. 44 м над ур. моря [Российская Федерация]

Дополнительная информация

В oтличие oт бoльшинства пoгoдных сайтoв мы публикуем пoдрoбную метеoинфoрмацию в детальнoм прoфессиoнальнoм фoрмате.

Характеристики температуры и влажнoсти вoздуха измеряются на высoте 2 м в тени вдали oт зданий и деревьев.
Скoрoсть ветра измеряется на высoте 10 м (на урoвне рoста челoвека скoрoсть ветра ниже в 1.5-2 раза). Если метеoстанция нахoдится в гoрoде или в лесу, тo скoрoсть ветра занижена на 2-4 м/с пo сравнению с oткрытым местoм. Скoрoсть ветра над акватoриями крупных рек и oзёр, а также на вершинах хoлмoв на 2-5 м/с выше, чем в oбычных услoвиях.
Атмoсфернoе давление в разных тoчках местнoсти мoжет значительнo oтличаться oт давления на метеoстанции, в зависимoсти oт услoвий рельефа (при пoдъёме на 10 м давление пoнижается примернo на 1 мм рт.ст.).